Weather History for Mazatlan Airport, Mexico

Change the Weather History Date:

Monday, February 27, 2012

  Actual Average Record
Temperature  
Mean Temperature 65 °F -  
Max Temperature 80 °F 77 °F 86 °F (2006)
Min Temperature 50 °F 51 °F 44 °F (2013)
Growing Degree Days 15 (Base 50)    
Moisture  
Dew Point 46 °F    
Average Humidity 53    
Maximum Humidity 72    
Minimum Humidity 24    
Precipitation  
Precipitation 0.00 in - - ()
Sea Level Pressure  
Sea Level Pressure 29.97 in    
Wind  
Wind Speed 6 mph ()    
Max Wind Speed 14 mph    
Max Gust Speed -    
Visibility 11.5 miles    
Events      
Averages and records for this station are not official NWS values.
T = Trace of Precipitation, MM = Missing Value Source: Averaged Metar Reports

Daily Weather History Graph

Daily Weather History Graph

Search for Another Location

Airport:

Trip Planner

Search our weather history database for the weather conditions in past years. The results will help you decide how hot, cold, wet, or windy it might be!

Date:

Astronomy

Feb. 27, 2012 Rise Set
Actual Time 6:28 AM MST 6:07 PM MST
Civil Twilight 6:06 AM MST 6:29 PM MST
Nautical Twilight 5:39 AM MST 6:56 PM MST
Astronomical Twilight 5:13 AM MST 7:22 PM MST
Moon 9:44 AM MST (2/27) 11:15 PM MST (2/27)
Length of Visible Light 12h 23m
Length of Day
11h 38m
Waxing Crescent, 29% of the Moon is Illuminated
Feb 27
Waxing Crescent
Feb 29
First Quarter
Mar 8
Full
Mar 14
Last Quarter
Mar 22
New

Hourly Weather History & Observations

Time (MST) Temp. Dew Point Humidity Pressure Visibility Wind Dir Wind Speed Gust Speed Precip Events Conditions
12:51 AM 51.8 °F 42.8 °F 71% 29.98 in 10.0 mi NNE 6.9 mph - N/A   Clear
1:44 AM 51.8 °F 42.8 °F 71% 29.96 in 10.0 mi North 6.9 mph - N/A   Clear
2:42 AM 51.8 °F 41.0 °F 67% 29.96 in 10.0 mi North 8.1 mph - N/A   Clear
3:41 AM 50.0 °F 39.2 °F 66% 29.95 in 10.0 mi North 8.1 mph - N/A   Clear
4:44 AM 50.0 °F 39.2 °F 66% 29.96 in 10.0 mi North 5.8 mph - N/A   Clear
5:42 AM 50.0 °F 39.2 °F 66% 29.96 in 10.0 mi North 5.8 mph - N/A   Clear
6:47 AM 50.0 °F 39.2 °F 66% 29.98 in 12.0 mi North 8.1 mph - N/A   Scattered Clouds
7:40 AM 53.6 °F 42.8 °F 67% 29.98 in 4.0 mi Calm Calm - N/A   Mostly Cloudy
8:44 AM 66.2 °F 48.2 °F 52% 30.02 in 12.0 mi West 6.9 mph - N/A   Mostly Cloudy
9:43 AM 71.6 °F 51.8 °F 50% 30.02 in 12.0 mi SW 6.9 mph - N/A   Mostly Cloudy
10:50 AM 77.0 °F 46.4 °F 34% 29.99 in 12.0 mi South 6.9 mph - N/A   Mostly Cloudy
11:41 AM 78.8 °F 51.8 °F 39% 29.99 in 12.0 mi SW 10.4 mph - N/A   Mostly Cloudy
12:43 PM 78.8 °F 50.0 °F 36% 29.98 in 15.0 mi SSW 4.6 mph - N/A   Mostly Cloudy
1:43 PM 80.6 °F 50.0 °F 34% 29.95 in 15.0 mi SW 8.1 mph - N/A   Mostly Cloudy
2:46 PM 80.6 °F 41.0 °F 24% 29.94 in 15.0 mi WSW 13.8 mph - N/A   Mostly Cloudy
3:45 PM 80.6 °F 44.6 °F 28% 29.93 in 15.0 mi West 12.7 mph - N/A   Mostly Cloudy
4:48 PM 78.8 °F 46.4 °F 32% 29.91 in 15.0 mi West 10.4 mph - N/A   Mostly Cloudy
5:41 PM 73.4 °F 48.2 °F 41% 29.94 in 15.0 mi WSW 9.2 mph - N/A   Mostly Cloudy
6:41 PM 68.0 °F 48.2 °F 49% 29.96 in 12.0 mi West 6.9 mph - N/A   Mostly Cloudy
7:46 PM 64.4 °F 46.4 °F 52% 29.96 in 10.0 mi WNW 6.9 mph - N/A   Scattered Clouds
8:42 PM 62.6 °F 48.2 °F 59% 29.98 in 10.0 mi West 8.1 mph - N/A   Partly Cloudy
9:43 PM 60.8 °F 51.8 °F 72% 29.99 in 10.0 mi West 5.8 mph - N/A   Scattered Clouds
10:42 PM 57.2 °F 48.2 °F 72% 30.02 in 10.0 mi ENE 5.8 mph - N/A   Scattered Clouds
11:50 PM 55.4 °F 44.6 °F 67% 29.99 in 10.0 mi NE 8.1 mph - N/A   Partly Cloudy